Other Public Products
Issued by NWS Charleston, SC

Current Version | Previous Version | Graphics & Text | Print | Product List | Glossary On
Versions: 1 2 3 4 5 6 7 8 9 10 11 12 13 14 15 16 17 18 19 20 21 22 23 24 25 26 27 28 29 30 31 32 33 34 35 36 37 38 39 40 41 42 43 44 45 46 47 48 49 50
470
FPUS82 KCHS 170627
OPUCHS

TEST...KCHS/KSAV Gateway Observations...TEST
National Weather Service Charleston SC
100 AM EST TUE JAN 17 2017

NOTE: "fair" indicates few or no clouds below 12,000 feet with no
significant weather and/or obstructions to visibility.

SCZ050-WAZ558-NCZ071-TXZ119-213-PAZ071-DCZ001-FLZ074-172-MI076-
NYZ176-178-MAZ016-IL014-TNZ027-NJZ106-GAZ044-MD014-170700-
...Gateway Observations for Charleston International...

CITY           SKY/WX    TMP DP  RH WIND       PRES   REMARKS
Chas Airport   PTCLDY    52  50  93 N3        30.27F
6HR MIN TEMP:  51; 6HR MAX TEMP:  60;

Seattle        CLOUDY    44  28  53 S3        29.97S
6HR MIN TEMP:  42; 6HR MAX TEMP:  45;

Charlotte      CLOUDY    50  47  89 SE6       30.28F
6HR MIN TEMP:  50; 6HR MAX TEMP:  53;

Dallas DFW     CLOUDY    50  41  71 N6        30.09R
6HR MIN TEMP:  49; 6HR MAX TEMP:  59;

Dallas Love    CLOUDY    51  41  68 CALM      30.10R
6HR MIN TEMP:  51; 6HR MAX TEMP:  62;

Philladelphia  CLOUDY    39  28  64 CALM      30.30F
6HR MIN TEMP:  38; 6HR MAX TEMP:  39;

Wash National  LGT RAIN  41  39  93 S5        30.28F
6HR MIN TEMP:  41; 6HR MAX TEMP:  44; 6HR PCP:  0.03;

Baltimore      CLOUDY    40  32  73 SE5       30.26F WCI  37
6HR MIN TEMP:  39; 6HR MAX TEMP:  40;

Miami          PTCLDY    74  61  63 E8        30.21S
6HR MIN TEMP:  73; 6HR MAX TEMP:  76;

Detroit        LGT RAIN  33  31  92 E9        30.07F FOG     WCI  25
6HR MIN TEMP:  32; 6HR MAX TEMP:  34; 6HR PCP:  0.14;

Newark         CLOUDY    40  25  55 SW12      30.28F WCI  33
6HR MIN TEMP:  40; 6HR MAX TEMP:  41; 6HR PCP: TRACE;

Laguardia      CLOUDY    42  25  50 SW10      30.27F
6HR MIN TEMP:  42; 6HR MAX TEMP:  43;

J F K          CLOUDY    41  25  53 SW14      30.30F
6HR MIN TEMP:  38; 6HR MAX TEMP:  41;

Boston Logan   MOCLDY    35  20  54 SW13      30.20  WCI  26
6HR MIN TEMP:  35; 6HR MAX TEMP:  38;

Ft. Lauderdale PTCLDY    73  62  68 SE10      30.20S
6HR MIN TEMP:  73; 6HR MAX TEMP:  75; 6HR PCP: TRACE;

Chicago O`Hare DRZL/FOG  37  37 100 NE7       29.82F VSB 3/4 WCI  32
6HR MIN TEMP:  36; 6HR MAX TEMP:  37; 6HR PCP:  0.20;

Chicago Midway DRZL/FOG  37  36  96 N6        29.82F VSB 3/4 WCI  32
6HR MIN TEMP:  36; 6HR MAX TEMP:  39; 6HR PCP:  0.14;

Houston Bush   CLOUDY    72  69  90 S7        30.02S
6HR MIN TEMP:  72; 6HR MAX TEMP:  75; 6HR PCP: TRACE;

Houston Hobby  CLOUDY    71  69  93 S5        30.02S
6HR MIN TEMP:  70; 6HR MAX TEMP:  73;

Nashville      LGT RAIN  65  53  65 S14       30.03F
6HR MIN TEMP:  61; 6HR MAX TEMP:  66; 6HR PCP:  0.06;

Atlanta        MOCLDY    57  55  93 E5        30.23F
6HR MIN TEMP:  57; 6HR MAX TEMP:  67;


$$

GAZ044-118-TXZ119-213-NCZ071-DCZ001-MDZ014-506-PAZ021-071-NJZ106-
NYZ176-178-MAZ106-OHZ011-021-055-MIZ076-KYZ091-ILZ014-INZ047-
MNZ060-170700-
...Gateway Observations for Savannah International...

CITY           SKY/WX    TMP DP  RH WIND       PRES   REMARKS
Savannah Arpt  FOG       57  56  96 E5        30.27F VSB 1/2
6HR MIN TEMP:  57; 6HR MAX TEMP:  61;

Atlanta        MOCLDY    57  55  93 E5        30.23F
6HR MIN TEMP:  57; 6HR MAX TEMP:  67;

Charlotte      CLOUDY    50  47  89 SE6       30.28F
6HR MIN TEMP:  50; 6HR MAX TEMP:  53;

Dallas DFW     CLOUDY    50  41  71 N6        30.09R
6HR MIN TEMP:  49; 6HR MAX TEMP:  59;

Houston Bush   CLOUDY    72  69  90 S7        30.02S
6HR MIN TEMP:  72; 6HR MAX TEMP:  75; 6HR PCP: TRACE;

Wash National  LGT RAIN  41  39  93 S5        30.28F
6HR MIN TEMP:  41; 6HR MAX TEMP:  44; 6HR PCP:  0.03;

Wash Dulles    CLOUDY    40  37  89 S3        30.26F
6HR MIN TEMP:  40; 6HR MAX TEMP:  43; 6HR PCP: TRACE;

Baltimore      CLOUDY    40  32  73 SE5       30.26F WCI  37
6HR MIN TEMP:  39; 6HR MAX TEMP:  40;

Philadelphia   CLOUDY    39  28  64 CALM      30.30F
6HR MIN TEMP:  38; 6HR MAX TEMP:  39;

Newark         CLOUDY    40  25  55 SW12      30.28F WCI  33
6HR MIN TEMP:  40; 6HR MAX TEMP:  41; 6HR PCP: TRACE;

Laguardia      CLOUDY    42  25  50 SW10      30.27F
6HR MIN TEMP:  42; 6HR MAX TEMP:  43;

J F K          CLOUDY    41  25  53 SW14      30.30F
6HR MIN TEMP:  38; 6HR MAX TEMP:  41;

Boston         MOCLDY    35  20  54 SW13      30.20  WCI  26
6HR MIN TEMP:  35; 6HR MAX TEMP:  38;

Pittsburg      CLOUDY    38  36  92 CALM      30.12F
6HR MIN TEMP:  36; 6HR MAX TEMP:  38;

Akron          LGT RAIN  40  36  86 SE9       30.08F FOG     WCI  34
6HR MIN TEMP:  37; 6HR MAX TEMP:  40; 6HR PCP: TRACE;

Cleveland      CLOUDY    41  36  82 SE6       30.09F
6HR MIN TEMP:  39; 6HR MAX TEMP:  41; 6HR PCP:  0.04;

Cincinnati     LGT RAIN  54  53  97 S12       30.00F
6HR MIN TEMP:  49; 6HR MAX TEMP:  55; 6HR PCP:  0.15;

Columbus       LGT RAIN  44  44 100 E5        30.04F
Detroit        LGT RAIN  33  31  92 E9        30.07F FOG     WCI  25
6HR MIN TEMP:  32; 6HR MAX TEMP:  34; 6HR PCP:  0.14;

Chicago O`Hare DRZL/FOG  37  37 100 NE7       29.82F VSB 3/4 WCI  32
6HR MIN TEMP:  36; 6HR MAX TEMP:  37; 6HR PCP:  0.20;

Minneapolis    FRZ RAIN  30  26  85 N8        29.95F FOG     WCI  22
6HR MIN TEMP:  30; 6HR MAX TEMP:  32; 6HR PCP:  0.11;

Indianapolis   LGT RAIN  52  51  97 SE9       29.92F FOG
6HR MIN TEMP:  48; 6HR MAX TEMP:  52; 6HR PCP:  0.60;


$$




USA.gov is the U.S. government's official web portal to all federal, state and local government web resources and services.